Bandera, Texas, United States (78003)
Lat: 29.73N, Lon: 99.07W
Wx Zone: TXZ187
Local Info
Past Weather Observations for Yesterday

NOTE: This archive is for the closest National Weather Service station to Bandera. Information may differ from the station used for current weather conditions.

Click here for Long-term Archive

Time Weather Temperature Dewpoint Humidity Pressure Winds Precip Visibility
23:51
Overcast
Light Rain
59°F / 15°C 57°F / 14°C 94% 30.06 in
(1018 mb)
ENE 6.9 mph
(ENE 11 kph)
0.01 in
(0.25 mm)
4SM
22:51
Overcast
59°F / 15°C 57°F / 14°C 94% 30.06 in
(1018 mb)
ENE 10.4 mph
(ENE 17 kph)
0.00 in
(0.00 mm)
7SM
22:16
Overcast
61°F / 16°C 57°F / 14°C 88% 30.04 in
(1017 mb)
ENE 10.4 mph
(ENE 17 kph)
0.00 in
(0.00 mm)
7SM
21:51
Overcast
Light Rain
61°F / 16°C 57°F / 14°C 88% 30.06 in
(1018 mb)
E 12.7 mph
(E 20 kph)
0.01 in
(0.25 mm)
7SM
21:37
Overcast
Light Rain
61°F / 16°C 57°F / 14°C 88% 30.06 in
(1018 mb)
E 9.2 mph
(E 15 kph)
0.01 in
(0.25 mm)
7SM
21:22
Overcast
Light Rain
61°F / 16°C 57°F / 14°C 88% 30.06 in
(1018 mb)
E 11.5 mph
(E 19 kph)
0.01 in
(0.25 mm)
6SM
21:02
Overcast
Light Rain
61°F / 16°C 57°F / 14°C 88% 30.06 in
(1018 mb)
ENE 8.1 mph
(ENE 13 kph)
0.00 in
(0.00 mm)
9SM
20:51
Overcast
Light Rain
61°F / 16°C 57°F / 14°C 88% 30.06 in
(1018 mb)
ENE 6.9 mph
(ENE 11 kph)
0.00 in
(0.00 mm)
9SM
20:47
Overcast
61°F / 16°C 57°F / 14°C 88% 30.06 in
(1018 mb)
E 9.2 mph
(E 15 kph)
- 9SM
20:00
Overcast
63°F / 17°C 57°F / 14°C 83% 30.04 in
(1017 mb)
ENE 12.7 mph
(ENE 20 kph)
- 10SM
19:51
Overcast
63°F / 17°C 57°F / 14°C 83% 30.04 in
(1017 mb)
E 9.2 mph
(E 15 kph)
- 10SM
19:42
Overcast
63°F / 17°C 57°F / 14°C 83% 30.04 in
(1017 mb)
E 11.5 mph
(E 19 kph)
- 10SM
18:51
Mostly Cloudy
63°F / 17°C 57°F / 14°C 83% 30.04 in
(1017 mb)
E 8.1 mph
(E 13 kph)
- 10SM
17:51
Clear
64°F / 18°C 59°F / 15°C 83% 30.04 in
(1017 mb)
ESE 10.4 mph
(ESE 17 kph)
- 10SM
16:51
Clear
68°F / 20°C 61°F / 16°C 78% 30.01 in
(1016 mb)
E 8.1 mph
(E 13 kph)
- 10SM
15:51
Partly Cloudy
72°F / 22°C 61°F / 16°C 69% 30.01 in
(1016 mb)
E 6.9 mph
(E 11 kph)
- 10SM
14:51
Mostly Cloudy
70°F / 21°C 61°F / 16°C 73% 30.04 in
(1017 mb)
ESE 6.9 mph
(ESE 11 kph)
- 10SM
13:51
Overcast
68°F / 20°C 61°F / 16°C 78% 30.06 in
(1018 mb)
ESE 3.5 mph
(ESE 6 kph)
- 10SM
12:51
Overcast
68°F / 20°C 61°F / 16°C 78% 30.06 in
(1018 mb)
Variable 4.6 mph
(Variable 7 kph)
- 10SM
11:51
Mostly Cloudy
66°F / 19°C 61°F / 16°C 83% 30.09 in
(1019 mb)
E 4.6 mph
(E 7 kph)
- 10SM
10:51
Partly Cloudy
66°F / 19°C 59°F / 15°C 78% 30.15 in
(1021 mb)
ENE 4.6 mph
(ENE 7 kph)
- 10SM
10:36
Partly Cloudy
64°F / 18°C 61°F / 16°C 88% 30.15 in
(1021 mb)
NE 6.9 mph
(NE 11 kph)
- 10SM
10:28
Mostly Cloudy
64°F / 18°C 61°F / 16°C 88% 30.12 in
(1020 mb)
NE 8.1 mph
(NE 13 kph)
- 10SM
09:51
Overcast
63°F / 17°C 59°F / 15°C 88% 30.15 in
(1021 mb)
NE 6.9 mph
(NE 11 kph)
- 10SM
08:51
Overcast
61°F / 16°C 57°F / 14°C 88% 30.12 in
(1020 mb)
NNE 6.9 mph
(NNE 11 kph)
- 7SM
08:21
Overcast
Fog And Mist
59°F / 15°C 57°F / 14°C 94% 30.12 in
(1020 mb)
NNE 5.8 mph
(NNE 9 kph)
- 5SM
08:07
Overcast
Fog And Mist
59°F / 15°C 57°F / 14°C 94% 30.12 in
(1020 mb)
NNE 5.8 mph
(NNE 9 kph)
- 4SM
07:51
Overcast
Fog And Mist
59°F / 15°C 57°F / 14°C 94% 30.12 in
(1020 mb)
NE 4.6 mph
(NE 7 kph)
0.01 in
(0.25 mm)
3SM
07:48
Overcast
Fog And Mist
59°F / 15°C 57°F / 14°C 94% 30.12 in
(1020 mb)
NE 5.8 mph
(NE 9 kph)
0.01 in
(0.25 mm)
3SM
07:39
Overcast
Light Rain
59°F / 15°C 57°F / 14°C 94% 30.12 in
(1020 mb)
NNE 6.9 mph
(NNE 11 kph)
0.01 in
(0.25 mm)
2 1/2SM
07:34
Overcast
Light Rain
59°F / 15°C 57°F / 14°C 94% 30.12 in
(1020 mb)
N 6.9 mph
(N 11 kph)
0.01 in
(0.25 mm)
1 3/4SM
07:19
Overcast
Fog And Mist
59°F / 15°C 57°F / 14°C 94% 30.12 in
(1020 mb)
Calm - 2SM
06:51
Overcast
Fog And Mist
57°F / 14°C 57°F / 14°C 100% 30.09 in
(1019 mb)
NE 5.8 mph
(NE 9 kph)
- 1 1/4SM
05:51
Obscured
Fog
57°F / 14°C 57°F / 14°C 100% 30.06 in
(1018 mb)
NE 5.8 mph
(NE 9 kph)
- 1/4SM
04:51
Obscured
Fog
57°F / 14°C 57°F / 14°C 100% 30.06 in
(1018 mb)
NE 5.8 mph
(NE 9 kph)
- 1/4SM
03:51
Obscured
Fog
59°F / 15°C 57°F / 14°C 94% 30.06 in
(1018 mb)
NNE 5.8 mph
(NNE 9 kph)
- 1/4SM
02:51
Obscured
Fog
57°F / 14°C 57°F / 14°C 100% 30.06 in
(1018 mb)
NNE 6.9 mph
(NNE 11 kph)
- 1/2SM
02:36
Overcast
Fog And Mist
57°F / 14°C 57°F / 14°C 100% 30.09 in
(1019 mb)
N 8.1 mph
(N 13 kph)
- 3/4SM
02:28
Overcast
Fog And Mist
59°F / 15°C 57°F / 14°C 94% 30.06 in
(1018 mb)
N 5.8 mph
(N 9 kph)
- 1 3/4SM
02:23
Overcast
Fog And Mist
59°F / 15°C 57°F / 14°C 94% 30.06 in
(1018 mb)
NE 5.8 mph
(NE 9 kph)
- 2 1/2SM
02:13
Overcast
Fog And Mist
59°F / 15°C 57°F / 14°C 94% 30.09 in
(1019 mb)
NNE 5.8 mph
(NNE 9 kph)
- 4SM
01:51
Overcast
Fog And Mist
59°F / 15°C 57°F / 14°C 94% 30.06 in
(1018 mb)
NE 3.5 mph
(NE 6 kph)
- 4SM
00:51
Overcast
Fog And Mist
57°F / 14°C 57°F / 14°C 100% 30.09 in
(1019 mb)
NE 6.9 mph
(NE 11 kph)
- 4SM
00:48
Overcast
Fog And Mist
57°F / 14°C 57°F / 14°C 100% 30.09 in
(1019 mb)
NNE 6.9 mph
(NNE 11 kph)
- 4SM
00:28
Overcast
Fog And Mist
57°F / 14°C 55°F / 13°C 94% 30.09 in
(1019 mb)
NNE 6.9 mph
(NNE 11 kph)
- 4SM
00:08
Overcast
Fog And Mist
57°F / 14°C 55°F / 13°C 94% 30.09 in
(1019 mb)
NNE 6.9 mph
(NNE 11 kph)
- 5SM
Time Weather Temperature Dewpoint Humidity Pressure Winds Precip Visibility


Weather for websites

WeatherForYou.com, LLC is not responsible for any damages or problems caused by this service. Current weather conditions are obtained from the closest station including government and personal stations which may have varying degrees of accuracy. Weather forecasts are derived from the NOAA NDFD. Like all things, this site belongs to Jesus Christ... He just trusts me to maintain it. If you have any questions or comments email webmaster@weatherforyou.com

Copyright © 2014, WeatherForYou.com LLC. All rights reserved.